This is the latest recevied weather packets stored in our database for station/object N4AN. If no packets are shown the sender has not sent any weather packets the latest 10 day(s).
| Time | Temp. | Humidity | Pressure | Rain* | Wind** | Luminosity | Snow |
|---|---|---|---|---|---|---|---|
| 1788116481 | 30.56° C | 78% | 1010.4 hPa | 0 mm | - | - | - |
| 1788116180 | 30.56° C | 78% | 1010.4 hPa | 0 mm | - | - | - |
| 1788115879 | 30.56° C | 78% | 1010.4 hPa | 0 mm | - | - | - |
| 1788115579 | 30.56° C | 78% | 1010.4 hPa | 0 mm | - | - | - |
| 1788115278 | 30.56° C | 78% | 1010.5 hPa | 0 mm | - | - | - |
| 1788114982 | 30.56° C | 78% | 1010.6 hPa | 0 mm | - | - | - |
| 1788114677 | 30° C | 79% | 1010.6 hPa | 0 mm | - | - | - |
| 1788114377 | 30.56° C | 78% | 1010.8 hPa | 0 mm | - | - | - |
| 1788114076 | 30.56° C | 78% | 1010.8 hPa | 0 mm | - | - | - |
| 1788113776 | 30.56° C | 77% | 1010.8 hPa | 0 mm | - | - | - |
| 1788113476 | 30.56° C | 76% | 1011 hPa | 0 mm | - | - | - |
| 1788113176 | 30.56° C | 77% | 1011 hPa | 0 mm | - | - | - |
| 1788112876 | 30.56° C | 75% | 1011.2 hPa | 0 mm | - | - | - |
| 1788112575 | 31.11° C | 74% | 1011.2 hPa | 0 mm | - | - | - |
| 1788112275 | 31.11° C | 76% | 1011 hPa | 0 mm | - | - | - |
| 1788111974 | 31.11° C | 75% | 1011 hPa | 0 mm | - | - | - |
| 1788111674 | 31.67° C | 75% | 1011 hPa | 0 mm | - | - | - |
| 1788111374 | 32.22° C | 75% | 1010.9 hPa | 0 mm | - | - | - |
| 1788111074 | 31.67° C | 76% | 1011 hPa | 0 mm | - | - | - |
| 1788110773 | 32.22° C | 75% | 1011.1 hPa | 0 mm | - | - | - |
| 1788110473 | 32.22° C | 75% | 1011.2 hPa | 0 mm | - | - | - |
| 1788110173 | 32.22° C | 77% | 1011.4 hPa | 0 mm | - | - | - |
| 1788109859 | 30° C | 78% | 1011.6 hPa | 0 mm | - | - | - |
| 1788109559 | 30° C | 78% | 1011.7 hPa | 0 mm | - | - | - |
| 1788109258 | 30.56° C | 77% | 1011.6 hPa | 0 mm | - | - | - |
* Rain latest hour (hover to see other rain measurements)
** Current wind speed in m/s (hover to see current wind gust speed)